Notices

What's New in latest Release from April 7th, 2021:

- Updated Glossary, including Speed of Maximum Gust, and Total Hourly Precipitation

- Updated national and regional climate services offices contacts and prices information

- Addition of station inventory lists for 1981-2010, 1971-2000, and 1961-1990 Normals.

If you haven't already, please take our survey and provide feedback about our website: https://eccc.sondage-survey.ca/f/LanguageSelection.aspx?s=442ca660-fcf1-47c0-95a9-59707d6fd709

Hourly Data Report for October 10, 2019

PILGER
SASKATCHEWAN
Current Station Operator: ECCC - MSC

52°25'00.000" N
105°09'00.000" W
552.00 m
4056121
71655
PUN

Download Data

Hourly Data (October 2019)
Hourly Data Report for October 10, 2019
TIME
LST
Temp Definition
°C
Dew Point Definition
°C
Rel Hum Definition
%
Precip. Amount Definition
mm

Wind Dir Definition
10's deg

Wind Spd Definition
km/h
Visibility Definition
km
Stn Press Definition
kPa
Hmdx Definition


Wind Chill Definition


Weather Definition


00:00 -5.5 -10.1 70 0.0 28 11   96.19   -10 LegendNANA
01:00 -5.0 -9.9 68 0.0 28 11   96.17   -10 LegendNANA
02:00 -7.1 -10.4 77 0.0 30 14   96.16   -13 LegendNANA
03:00 -5.8 -9.3 76 0.0 30 12   96.15   -11 LegendNANA
04:00 -6.1 -9.9 75 0.0 29 11   96.17   -11 LegendNANA
05:00 -6.1 -9.8 75 0.0 29 12   96.20   -11 LegendNANA
06:00 -7.2 -10.2 79 0.0 29 10   96.18   -12 LegendNANA
07:00 -5.8 -10.1 72 0.0 29 14   96.22   -11 LegendNANA
08:00 -5.2 -10.0 69 0.0 27 10   96.30   -10 LegendNANA
09:00 -2.9 -8.8 64 0.0 27 7   96.33   -6 LegendNANA
10:00 -0.7 -8.6 55 0.0 28 11   96.28   -4 LegendNANA
11:00 0.8 -10.4 43 0.0 31 10   96.28     LegendNANA
12:00 1.5 -9.7 43 0.0 31 11   96.25     LegendNANA
13:00 2.1 -10.1 40 0.0 32 10   96.18     LegendNANA
14:00 2.7 -11.8 33 0.0 30 13   96.11     LegendNANA
15:00 3.3 -11.6 33 0.0 32 13   96.07     LegendNANA
16:00 2.3 -12.4 33 0.0 32 16   96.04     LegendNANA
17:00 2.4 -13.2 30 0.0 31 16   96.01     LegendNANA
18:00 -0.5 -11.9 42 0.0 31 10   96.03   -4 LegendNANA
19:00 -2.3 -10.8 52 0.0 30 11   96.04   -6 LegendNANA
20:00 -3.4 -10.5 58 0.0 30 12   96.02   -8 LegendNANA
21:00 -3.5 -10.3 59 0.0 29 13   96.00   -8 LegendNANA
22:00 -3.3 -10.4 58 0.0 28 13   95.99   -8 LegendNANA
23:00 -3.3 -10.6 57 0.0 29 14   95.98   -8 LegendNANA

Notes on Data Quality.

Legend

  • E = Estimated
  • M = Missing
  • NA = Not Available*
  • [empty] = Indicates an unobserved value
Date modified: